THORAD AGENA D DEB

Satellite information

Favourite Embed

Satellite Type and Status

DEBRISIN ORBIT

Key statistics

Satellite THORAD AGENA D DEB at a glance.

Uptime

20339

Days in orbit

Revolutions

≈ 14.0

Per day

Orbit

SSO

Sun Synchronous Orbit

Inclination

100.0

Latest

Satellite identification and parameters

Extended collection of information and parameters for THORAD AGENA D DEB.

Object identification

Identified? True

Debris? True

Object name: THORAD AGENA D DEB

International designator: 1970-025CE

Object number (NORAD): 4720

Object ID (CCSDS): 4720

Country: UNITED STATES OF AMERICA (US)

Current information (Y/N): Y

RCS size: SMALL

Orbital parameters

Period: 102.523 minutes

Inclination: 100.0288 deg

SMA: 7256.167 km

Apoapsis: 939.468 km

Periapsis: 816.595 km

RAAN: 283.2126 deg

Eccentricy: 0.0084668

Argument of periapsis: 86.067 deg

Mean anomaly: 275.0168 deg

Mean motion: 14.04565133 rev/day

Mean motion (dot): 0.00002405 rev/day2

B* drag term: 0.0014894709 1/REarth

Two-line elements (TLE)

Creation date: Dec. 14, 2025, 3:07 a.m.

Reference frame: TEME

Reference center: EARTH

Epoch: Dec. 13, 2025, 7:56 a.m. UTC

TLE line 0: 0 THORAD AGENA D DEB

TLE line 1: 1 04720U 70025CE 25347.33056706 .00002405 00000-0 14895-2 0 9998

TLE line 2: 2 04720 100.0288 283.2126 0084668 86.0670 275.0168 14.04565133824349

Live tracking on map

Real-time ground track for satellite THORAD AGENA D DEB.

In-orbit conjunctions

A list of the most updated potential collisions computed for object THORAD AGENA D DEB.

Target Orbit TCA Probability of collision Miss distance Type
FENGYUN 1C DEB SSO 2025-09-02 21:50:14 0.0001488348 202.0 (m) DEBRIS
DMSP 5D-2 F14 DEB SSO 2025-02-23 22:54:17 0.0001421926 544.0 (m) DEBRIS

Associated space launch

Meteorological research and development satellite

THORAD AGENA D DEB was lifted into orbit during the mission ‘Thorad SLV-2G Agena D | Nimbus 4’, on board a Thorad SLV-2G Agena D space rocket.

The launch took place on April 8, 1970, 8:17 a.m. from Space Launch Complex 2E.

For more information about the launch, click the button.

Launch to space Thorad SLV-2G Agena D | Nimbus 4
Thorad SLV-2G Agena D | Nimbus 4

Agency: N/A

Status: Launch Successful

Launch date: April 8, 1970, 8:17 a.m. UTC

Rocket: Thorad SLV-2G Agena D

Launch pad: Space Launch Complex 2E

Location: Vandenberg SFB, CA, USA

...

Latest news about this satellite

There are no fresh news available about this satellite. Check back as we update our databases every day.


Newsletter sign-up

Weekly statistics, charts and insights to help you stay on top of the space industry.